Sivas, Turkey

3:23 PM +03 on May 24, 2018 (GMT +0300)
Sivas

Weather History for LTAR - October, 2012

Change the Weather History Date:

Wednesday, October 24, 2012

  Actual Average Record
Temperature  
Mean Temperature 53 °F -  
Max Temperature 65 °F 54 °F - ()
Min Temperature 41 °F 33 °F - ()
Degree Days  
Heating Degree Days 12    
Growing Degree Days 3 (Base 50)    
Moisture  
Dew Point 40 °F    
Average Humidity 68    
Maximum Humidity 100    
Minimum Humidity 23    
Precipitation  
Precipitation 0.00 in 0.05 in - ()
Sea Level Pressure  
Sea Level Pressure 30.09 in    
Wind  
Wind Speed 6 mph ()    
Max Wind Speed 13 mph    
Max Gust Speed -    
Visibility 6.4 miles    
Events      
T = Trace of Precipitation, MM = Missing Value Source: Averaged Metar Reports

Daily Weather History Graph

Daily Weather History Graph

Search for Another Location

Airport or City:

Astronomy

Oct. 24, 2012 Rise Set
Actual Time 6:52 AM EEST 5:40 PM EEST
Civil Twilight 6:24 AM EEST 6:07 PM EEST
Nautical Twilight 5:53 AM EEST 6:39 PM EEST
Astronomical Twilight 5:21 AM EEST 7:10 PM EEST
Moon 2:44 PM EEST 1:26 AM EEST
Length of Visible Light 11h 42m
Length of Day
10h 47m
Waxing Gibbous, 73% of the Moon is Illuminated
Oct 24
Waxing Gibbous
Oct 29
Full
Nov 7
Last Quarter
Nov 14
New
Nov 20
First Quarter

Hourly Weather History & Observations

Time (EEST) Temp. Windchill Dew Point Humidity Pressure Visibility Wind Dir Wind Speed Gust Speed Precip Events Conditions
12:50 AM 41.0 °F 36.4 °F 41.0 °F 100% 30.09 in 6.2 mi ESE 6.9 mph - N/A   Scattered Clouds
1:50 AM 41.0 °F 35.8 °F 39.2 °F 93% 30.09 in 6.2 mi ESE 8.1 mph - N/A   Scattered Clouds
2:50 AM 42.8 °F 38.6 °F 41.0 °F 93% 30.09 in 6.2 mi SE 6.9 mph - N/A   Scattered Clouds
3:00 AM 46 °F - 43 °F 85% 30.00 in - Calm Calm - -  
4:50 AM 42.8 °F - 41.0 °F 93% 30.09 in 6.2 mi Calm Calm - N/A   Scattered Clouds
6:50 AM 42.8 °F 41.1 °F 41.0 °F 93% 30.09 in 6.2 mi ENE 3.5 mph - N/A   Scattered Clouds
7:50 AM 46.4 °F 41.5 °F 42.8 °F 87% 30.09 in 6.2 mi SSE 10.4 mph - N/A   Mostly Cloudy
8:50 AM 46.4 °F 41.5 °F 42.8 °F 87% 30.09 in 6.2 mi SSE 10.4 mph - N/A   Mostly Cloudy
9:50 AM 50.0 °F - 42.8 °F 76% 30.12 in 6.2 mi South 10.4 mph - N/A   Mostly Cloudy
10:50 AM 53.6 °F - 41.0 °F 62% 30.12 in 6.2 mi South 9.2 mph - N/A   Mostly Cloudy
11:50 AM 53.6 °F - 41.0 °F 62% 30.12 in 6.2 mi South 9.2 mph - N/A   Mostly Cloudy
12:50 PM 55.4 °F - 39.2 °F 54% 30.09 in 6.2 mi South 9.2 mph - N/A   Mostly Cloudy
1:50 PM 59.0 °F - 37.4 °F 45% 30.09 in 6.2 mi SW 12.7 mph - N/A   Mostly Cloudy
2:50 PM 57.2 °F - 35.6 °F 44% 30.09 in 6.2 mi WSW 10.4 mph - N/A   Mostly Cloudy
3:00 PM 65 °F - 36 °F 23%  in 9 mi West 4.6 mph - -   Mostly Cloudy
3:50 PM 59.0 °F - 35.6 °F 42% 30.09 in 6.2 mi SW 8.1 mph - N/A   Mostly Cloudy
4:50 PM 57.2 °F - 35.6 °F 44% 30.09 in 6.2 mi SW 8.1 mph - N/A   Mostly Cloudy
5:50 PM 53.6 °F - 39.2 °F 58% 30.09 in 6.2 mi WNW 6.9 mph - N/A   Mostly Cloudy
6:50 PM 51.8 °F - 39.2 °F 62% 30.09 in 6.2 mi WNW 5.8 mph - N/A   Scattered Clouds
7:50 PM 48.2 °F - 39.2 °F 71% 30.09 in 6.2 mi North 4.6 mph - N/A   Scattered Clouds
8:50 PM 50.0 °F - 39.2 °F 66% 30.09 in 6.2 mi East 2.3 mph - N/A   Scattered Clouds
9:00 PM 54 °F - 40 °F 49%  in 9 mi Calm Calm - -   Mostly Cloudy
9:50 PM 48.2 °F - 41.0 °F 76% 30.09 in 6.2 mi SSW 3.5 mph - N/A   Scattered Clouds
10:50 PM 48.2 °F - 39.2 °F 71% 30.09 in 6.2 mi Calm Calm - N/A   Scattered Clouds
11:50 PM 44.6 °F 43.1 °F 37.4 °F 76% 30.09 in 6.2 mi SE 3.5 mph - N/A   Scattered Clouds